Weather in Bahawalpur

Pakistan     29°23′42″N   71°40′42″E
temp.,
°C
wind,
m/s
gust,
m/s
humid.,
%
clouds,
%
prec.,
mm/h
press.,
hPa
HPBL,
m
26 october, tue
tue2623:00+21nne33440 0.0 101532
02:00+20nne11480 0.0 101411
05:00+19ne11500 0.0 101311
08:00+23se00410 0.0 1015141
11:00+29sw33280 0.0 10151518
14:00+32ssw44210 0.0 10112346
17:00+30s46220 0.0 1010157
20:00+26sse45290 0.0 101356
27 october, wed
wed2723:00+24s46333 0.0 101488
02:00+23ssw34370 0.0 101344
05:00+22sw22390 0.0 101417
08:00+24ene11330 0.0 1016140
11:00+31ssw44210 0.0 10161307
14:00+33sw34160 0.0 10122865
17:00+31w34170 0.0 101251
20:00+25nnw34290 0.0 101457
28 october, thu
thu2823:00+23n34340 0.0 101449
02:00+22n22360 0.0 101316
05:00+21w22390 0.0 101413
08:00+24nne11320 0.0 1015102
11:00+32sw34180 0.0 10151390
14:00+34wsw34130 0.0 10123254
17:00+31wsw22150 0.0 101214
20:00+26wnw11210 0.0 101411
29 october, fri
fri2923:00+25ne00230 0.0 101411
02:00+24ssw22240 0.0 101414
05:00+22sw22260 0.0 101414
08:00+26sw23220 0.0 1017156
11:00+32wsw23150 0.0 10161030
14:00+35w33100 0.0 10142887
17:00+32nw33110 0.0 101423
20:00+26ne33170 0.0 101618
30 october, sat
sat3023:00+24nne22200 0.0 101611
02:00+22n33230 0.0 101515
05:00+21nnw22270 0.0 101612
08:00+24nnw23250 0.0 1017119
11:00+33nw33130 0.0 10161035
14:00+36wnw3490 0.0 10132288
17:00+32wnw33100 0.0 101219
20:00+26nne22160 0.0 101311